Change the Weather History Date:

Saturday, November 10, 2012

  Actual Average Record
Temperature  
Mean Temperature 42 °F -  
Max Temperature 45 °F - - ()
Min Temperature 39 °F - - ()
Degree Days  
Heating Degree Days 23    
Moisture  
Dew Point -    
Average Humidity    
Maximum Humidity    
Minimum Humidity    
Precipitation  
Precipitation 0.00 in - - ()
Sea Level Pressure  
Sea Level Pressure 30.09 in    
Wind  
Wind Speed 7 mph ()    
Max Wind Speed 14 mph    
Max Gust Speed -    
T = Trace of Precipitation, MM = Missing Value Source: Averaged Metar Reports

Daily Weather History Graph

Daily Weather History Graph

Search for Another Location

Airport or City:

Trip Planner

Search our weather history database for the weather conditions in past years. The results will help you decide how hot, cold, wet, or windy it might be!

Date:

Astronomy

Nov. 10, 2012 Rise Set
Actual Time 7:18 AM PST 4:39 PM PST
Civil Twilight 6:44 AM PST 5:13 PM PST
Nautical Twilight 6:05 AM PST 5:52 PM PST
Astronomical Twilight 5:28 AM PST 6:29 PM PST
Moon 3:12 AM PST (11/10) 2:43 PM PST (11/10)
Length of Visible Light 10h 29m
Length of Day
9h 20m
Waning Crescent, 13% of the Moon is Illuminated
Nov 10
Waning Crescent
Nov 13
New
Nov 20
First Quarter
Nov 28
Full
Dec 6
Last Quarter

Hourly Weather History & Observations

Time (PST) Temp. Windchill Dew Point Humidity Pressure Visibility Wind Dir Wind Speed Gust Speed Precip Events Conditions
12:00 AM 43.3 °F 37.2 °F - N/A% 29.97 in - East 11.5 mph - N/A   Unknown
1:00 AM 43.2 °F 39.0 °F - N/A% 29.99 in - WSW 6.9 mph - N/A   Unknown
2:00 AM 40.8 °F 38.8 °F - N/A% 30.00 in - SW 3.5 mph - N/A   Unknown
3:00 AM 40.6 °F 35.4 °F - N/A% 30.01 in - West 8.1 mph - N/A   Unknown
4:00 AM 40 °F - - % 30.01 in - West 8.1 mph - -  
4:00 AM 40.5 °F 35.1 °F - N/A% 30.01 in - West 8.1 mph - N/A   Unknown
5:00 AM 41.4 °F 35.2 °F - N/A% 30.03 in - West 10.4 mph - N/A   Unknown
6:00 AM 40.8 °F 34.1 °F - N/A% 30.04 in - West 11.5 mph - N/A   Unknown
7:00 AM 41.4 °F 34.0 °F - N/A% 30.04 in - WNW 13.8 mph - N/A   Unknown
8:00 AM 41.4 °F 39.4 °F - N/A% 30.07 in - North 3.5 mph - N/A   Unknown
9:00 AM 41.0 °F 37.1 °F - N/A% 30.08 in - ESE 5.8 mph - N/A   Unknown
10:00 AM 41 °F - - % 30.10 in - East 11.5 mph - -  
10:00 AM 40.8 °F 34.1 °F - N/A% 30.10 in - East 11.5 mph - N/A   Unknown
11:00 AM 42.4 °F 40.7 °F - N/A% 30.12 in - East 3.5 mph - N/A   Unknown
12:00 PM 44.4 °F - - N/A% 30.13 in - SW 1.2 mph - N/A   Unknown
1:00 PM 42.4 °F 40.7 °F - N/A% 30.13 in - NNE 3.5 mph - N/A   Unknown
2:00 PM 43.2 °F 40.5 °F - N/A% 30.12 in - East 4.6 mph - N/A   Unknown
3:00 PM 42.4 °F 38.8 °F - N/A% 30.12 in - SSE 5.8 mph - N/A   Unknown
4:00 PM 42 °F - - % 30.14 in - South 5.8 mph - -  
4:00 PM 42.4 °F 38.8 °F - N/A% 30.14 in - South 5.8 mph - N/A   Unknown
5:00 PM 41.5 °F 38.6 °F - N/A% 30.14 in - South 4.6 mph - N/A   Unknown
6:00 PM 40.8 °F 38.8 °F - N/A% 30.15 in - SSE 3.5 mph - N/A   Unknown
7:00 PM 40.1 °F 38.0 °F - N/A% 30.15 in - South 3.5 mph - N/A   Unknown
8:00 PM 39.7 °F 36.5 °F - N/A% 30.16 in - South 4.6 mph - N/A   Unknown
9:00 PM 40.5 °F 34.6 °F - N/A% 30.16 in - South 9.2 mph - N/A   Unknown
10:00 PM 41 °F - - % 30.17 in - SSE 10.4 mph - -  
10:00 PM 40.8 °F 34.5 °F - N/A% 30.17 in - SSE 10.4 mph - N/A   Unknown
11:00 PM 40.8 °F 35.0 °F - N/A% 30.18 in - South 9.2 mph - N/A   Unknown